Miscellaneous Local Product
Issued by NWS Hastings, NE

Home | Current Version | Previous Version | Text Only | Print | Product List | Glossary On
Versions: 1 2 3 4 5 6 7 8 9 10 11 12 13 14 15 16 17 18 19 20 21 22 23 24 25 26 27 28 29 30 31 32 33 34 35 36 37 38 39 40 41 42 43 44 45 46 47 48 49 50
680
AXUS43 KGID 140202
MISGRI

GID CWA HOURLY WEATHER ROUNDUP
NATIONAL WEATHER SERVICE HASTINGS NE
800 PM CST SAT FEB 13 2016

NOTE: "FAIR" INDICATES FEW OR NO CLOUDS BELOW 12,000 FEET WITH NO
SIGNIFICANT WEATHER AND/OR OBSTRUCTIONS TO VISIBILITY.

...SOUTH CENTRAL NEBRASKA...

CITY           SKY/WX    TMP DP  RH WIND       PRES   REMARKS
GRAND ISLAND   CLOUDY    20   8  60 SE14      30.10F WCI   7
HASTINGS       CLOUDY    20   8  60 SE13      30.08F WCI   7
KEARNEY        PTCLDY    19  10  68 SE14      30.04F WCI   6
ORD            CLOUDY    20   9  62 S14       30.01F WCI   7
YORK           CLOUDY    19  10  68 SE17      30.15F WCI   4
AURORA         CLOUDY    20   9  64 SE13      30.11F WCI   7
LEXINGTON      CLOUDY    25  16  67 SE9       30.03S WCI  16
HOLDREGE       CLEAR     21  12  68 SE9       30.03F WCI  11
HEBRON         CLOUDY    23   7  50 SE9       30.18S WCI  13

...NEBRASKA PANHANDLE...

CITY           SKY/WX    TMP DP  RH WIND       PRES   REMARKS
CHADRON        LGT RAIN  40  32  73 NW41G55   29.93R WCI  27
ALLIANCE       CLEAR     39  31  72 NW28G43   29.89R WCI  28
SCOTTSBLUFF    PTCLDY    40  30  67 N33G43    29.96R WCI  28
SIDNEY         CLOUDY    37  33  85 SW12      29.89R WCI  29

...WESTERN AND NORTH CENTRAL NEBRASKA...

CITY           SKY/WX    TMP DP  RH WIND       PRES   REMARKS
VALENTINE      CLOUDY    27  24  89 S22G29    29.82F WCI  13
AINSWORTH      CLOUDY    25  21  85 S23G29    29.88F WCI  10
ONEILL         CLOUDY    20  10  65 S18G28    30.02F WCI   5
BROKEN BOW     CLOUDY    22  14  71 S17G24    29.98F WCI   8
IMPERIAL       CLOUDY    30  28  92 S10       29.94R WCI  21
NORTH PLATTE   CLOUDY    27  23  85 S15       29.96F WCI  15
MCCOOK         CLOUDY    28  23  81 SE6       29.97F WCI  22

...EASTERN NEBRASKA...

CITY           SKY/WX    TMP DP  RH WIND       PRES   REMARKS
NORFOLK        CLOUDY    17   8  67 SE15      30.14F WCI   2
SO SIOUX CITY  CLOUDY    17   7  64 SE10      30.25R WCI   5
TEKAMAH        CLOUDY    18   6  59 SE15      30.26F WCI   4
COLUMBUS       CLOUDY    18   1  49 SE12      30.17F WCI   5
ALBION         CLOUDY    19  10  68 SE15      30.11F WCI   5
OMAHA EPPLEY   CLOUDY    19   3  49 SE16      30.27F WCI   4
OFFUTT AFB     CLOUDY    19   2  49 SE15      30.25F WCI   5
MILLARD        CLOUDY    19   3  49 SE13      30.24F WCI   7
LINCOLN        CLOUDY    20   6  55 SE13      30.23F WCI   7
NEBRASKA CITY  CLOUDY    19   2  47 SE9       30.26S WCI   8
BEATRICE       CLOUDY    21   4  47 SE8       30.23S WCI  12
FALLS CITY     CLOUDY    20   2  45 SE10      30.29R WCI   9

...NORTHERN KANSAS...

CITY           SKY/WX    TMP DP  RH WIND       PRES   REMARKS
GOODLAND       CLEAR     31  28  89 S12       29.93F WCI  22
HILL CITY      CLOUDY    30  20  66 E9        30.03F WCI  22
NORTON         CLEAR     28  18  64 SE8       30.00F WCI  20
PHILLIPSBURG   CLOUDY    28  16  59 E13       30.05F WCI  18
SMITH CENTER   CLEAR     27  12  54 E15       30.08F WCI  15
BELOIT         CLEAR     27   7  43 E12       30.12F WCI  16
HAYS           CLOUDY    30  12  47 SE12      30.04F WCI  21
RUSSELL        CLOUDY    30  15  53 SE15      30.04F WCI  19
CONCORDIA      CLEAR     22   6  50 E10       30.15F WCI  11
SALINA         CLOUDY    29   7  39 E9        30.15F WCI  20
TOPEKA         CLOUDY    24   3  40 E13       30.28F WCI  12



USA.gov is the U.S. government's official web portal to all federal, state and local government web resources and services.